DW3201 Weather Reports


time (UTC)temp
F
wind
direction
speed
knots
gust
knots
rain 1hr
in
rain 24hr
in
rain mn
in
humidity
%
barometer
mb
20260906161621 74 51 1.7 7.8 0.00 0.00 0.00 76 1020.2
20260906160059 73 58 3.5 8.7 0.00 0.00 0.00 76 1020.0
20260906154605 72 84 5.2 7.8 0.00 0.00 0.00 77 1019.9
20260906153114 72 86 4.3 9.6 0.00 0.00 0.00 79 1019.9
20260906151600 72 94 4.3 8.7 0.00 0.00 0.00 81 1020.0
20260906150107 71 75 6.1 9.6 0.00 0.00 0.00 82 1019.8
20260906144600 71 69 4.3 8.7 0.00 0.00 0.00 85 1019.9
20260906143101 70 83 4.3 7.8 0.00 0.00 0.00 87 1019.8
20260906141621 70 96 5.2 9.6 0.00 0.00 0.00 87 1019.7
20260906140100 69 79 5.2 8.7 0.00 0.00 0.00 89 1019.8
20260906134600 69 108 2.6 7.0 0.00 0.00 0.00 89 1019.9
20260906133110 69 85 1.7 4.3 0.00 0.00 0.00 90 1019.9
20260906131609 68 0 0.0 1.7 0.00 0.00 0.00 91 1019.8
20260906124606 66 76 0.0 2.6 0.00 0.00 0.00 94 1019.3
20260906123108 65 0 0.0 1.7 0.00 0.00 0.00 95 1019.1
20260906121614 64 0 0.0 0.0 0.00 0.00 0.00 95 1019.1
20260906120118 64 0 0.0 0.0 0.00 0.00 0.00 94 1018.8
20260906114600 64 0 0.0 0.0 0.00 0.00 0.00 94 1018.7
20260906113057 64 0 0.0 0.0 0.00 0.00 0.00 94 1018.4
20260906111558 65 0 0.0 1.7 0.00 0.00 0.00 94 1018.4
20260906110103 65 50 0.0 3.5 0.00 0.00 0.00 94 1018.4
20260906104558 65 51 0.9 3.5 0.00 0.00 0.00 94 1018.3
20260906103104 65 50 0.0 0.9 0.00 0.00 0.00 94 1018.2
20260906101617 65 78 0.0 3.5 0.00 0.00 0.00 94 1018.3
20260906100101 65 62 1.7 3.5 0.00 0.00 0.00 94 1018.2
20260906094607 65 84 0.0 1.7 0.00 0.00 0.00 94 1018.3
20260906093109 65 50 0.9 3.5 0.00 0.00 0.00 95 1017.9
20260906091606 64 71 0.0 0.9 0.00 0.00 0.00 96 1017.7
20260906090104 63 0 0.0 0.0 0.00 0.00 0.00 95 1018.0
20260906084613 63 0 0.0 0.0 0.00 0.00 0.00 95 1018.0
20260906083104 63 0 0.0 0.0 0.00 0.00 0.00 95 1017.9
20260906081605 63 0 0.0 0.0 0.00 0.00 0.00 95 1017.7
20260906080105 63 0 0.0 0.0 0.00 0.00 0.00 95 1017.8
20260906074602 63 0 0.0 0.0 0.00 0.00 0.00 95 1017.8
20260906073103 63 0 0.0 0.0 0.00 0.00 0.00 95 1017.8
20260906071559 63 0 0.0 0.9 0.00 0.00 0.00 95 1017.7
20260906070058 63 0 0.0 0.0 0.00 0.00 0.00 94 1017.8
20260906064600 63 0 0.0 0.0 0.00 0.00 0.00 94 1018.0
20260906063103 63 0 0.0 0.9 0.00 0.00 0.00 94 1018.0
20260906061600 63 0 0.0 0.0 0.00 0.00 0.00 94 1018.0
20260906060136 63 0 0.0 0.9 0.00 0.00 0.00 94 1017.9
20260906054612 64 0 0.0 0.9 0.00 0.00 0.00 93 1017.9
20260906053058 64 0 0.0 0.0 0.00 0.00 0.00 92 1017.9
20260906051602 65 0 0.0 0.9 0.00 0.00 0.00 91 1017.8
20260906050105 66 0 0.0 1.7 0.00 0.00 0.00 91 1017.7
20260906044606 66 0 0.0 2.6 0.00 0.00 0.00 89 1017.8
20260906043102 66 68 0.0 0.9 0.00 0.00 0.00 89 1017.5
20260906041605 66 79 0.0 1.7 0.00 0.00 0.00 88 1017.3
20260906040105 66 75 0.9 2.6 0.00 0.00 0.00 88 1017.2
20260906034607 67 45 1.7 5.2 0.00 0.00 0.00 89 1017.5
20260906033101 67 41 2.6 5.2 0.00 0.00 0.00 90 1017.3
20260906031603 68 73 1.7 5.2 0.00 0.00 0.00 91 1017.2
20260906030101 68 47 1.7 6.1 0.00 0.00 0.00 92 1017.1
20260906024613 68 45 1.7 2.6 0.00 0.00 0.00 92 1017.0
20260906023058 68 49 0.0 1.7 0.00 0.00 0.00 91 1016.9
20260906021603 68 88 0.0 1.7 0.00 0.00 0.00 91 1016.7
20260906020109 69 50 1.7 6.1 0.00 0.00 0.00 91 1016.7
20260906014607 69 37 2.6 6.1 0.00 0.00 0.00 91 1016.7
20260906013108 69 41 3.5 5.2 0.00 0.00 0.00 90 1016.8
20260906011608 69 49 0.9 3.5 0.00 0.00 0.00 90 1016.8
20260906010143 69 74 1.7 5.2 0.00 0.00 0.00 90 1016.8
20260906004617 70 84 0.9 4.3 0.00 0.00 0.00 89 1016.8
20260906003102 70 41 2.6 4.3 0.00 0.00 0.00 88 1016.7
20260906001606 71 79 4.3 11.3 0.00 0.00 0.00 87 1016.8
20260906000100 72 36 6.1 10.4 0.00 0.00 0.00 86 1016.4
20260905234556 72 90 6.1 11.3 0.00 0.00 0.00 86 1016.4
20260905233103 73 50 6.1 12.2 0.00 0.00 0.00 85 1016.3
20260905231607 73 69 3.5 9.6 0.00 0.00 0.00 85 1016.6
20260905224603 75 92 2.6 7.0 0.00 0.00 0.00 80 1016.2
20260905223100 75 50 2.6 7.8 0.00 0.00 0.00 80 1016.1
20260905221600 75 75 4.3 8.7 0.00 0.00 0.00 80 1016.0
20260905220103 76 68 4.3 13.0 0.00 0.00 0.00 78 1015.9
20260905214609 76 6 4.3 11.3 0.00 0.00 0.00 77 1015.7
20260905213106 76 37 5.2 11.3 0.00 0.00 0.00 79 1015.5
20260905211612 77 92 5.2 14.8 0.00 0.00 0.00 80 1015.3
20260905210120 77 58 3.5 9.6 0.00 0.00 0.00 80 1015.2
20260905204601 77 89 5.2 12.2 0.00 0.00 0.00 79 1015.3
20260905203104 78 115 6.1 11.3 0.00 0.00 0.00 80 1015.3
20260905201604 79 53 6.1 10.4 0.00 0.00 0.00 74 1015.3
20260905200127 79 36 2.6 9.6 0.00 0.00 0.00 71 1015.3
20260905194601 80 0 1.7 4.3 0.00 0.00 0.00 72 1015.4
20260905193108 80 61 3.5 10.4 0.00 0.00 0.00 71 1015.4
20260905191602 79 105 2.6 9.6 0.00 0.00 0.00 72 1015.5
20260905190104 79 79 2.6 6.1 0.00 0.00 0.00 74 1015.5
20260905184609 79 25 0.9 4.3 0.00 0.00 0.00 75 1015.5
20260905183108 79 73 3.5 7.0 0.00 0.00 0.00 77 1015.6
20260905181602 79 44 2.6 6.1 0.00 0.00 0.00 77 1015.6
20260905174606 77 0 0.0 0.9 0.00 0.00 0.00 82 1015.9
20260905173104 76 58 1.7 2.6 0.00 0.00 0.00 83 1016.1
20260905171603 75 82 0.0 2.6 0.00 0.00 0.00 84 1016.1
20260905170101 75 46 0.9 3.5 0.00 0.00 0.00 85 1016.0
20260905164602 75 46 1.7 3.5 0.00 0.00 0.00 85 1016.1
20260905163058 75 94 1.7 4.3 0.00 0.00 0.00 85 1016.1